Regional Weather Roundup
Issued by NWS

Home | Current Version | Previous Version | Text Only | Print | Product List | Glossary Off
Versions: 1 2 3 4 5 6 7 8 9 10 11 12 13 14 15 16 17 18 19 20 21 22 23 24 25 26 27 28 29 30 31 32 33 34 35 36 37 38 39 40 41 42 43 44 45 46 47 48 49 50

000
ASUS43 KDTX 270401
RWRMI
MICHIGAN HOURLY REGIONAL WEATHER ROUNDUP
NATIONAL WEATHER SERVICE DETROIT/PONTIAC MI
1200 AM EDT THU JUL 27 2017

NOTE: "FAIR" INDICATES FEW OR NO CLOUDS BELOW 12,000 FEET WITH NO
SIGNIFICANT WEATHER AND/OR OBSTRUCTION TO VISIBILITY.

MIZ047>049-052>055-059>063-066>070-074>076-081>083-270500-
SOUTHEAST LOWER MICHIGAN

CITY           SKY/WX    TMP DP  RH WIND       PRES   REMARKS
ADRIAN         CLOUDY    69  64  84 S3        30.02F
ALMA           CLOUDY    70  64  82 W9        29.99S
ANN ARBOR      CLOUDY    69  66  90 S3        30.01F
BAD AXE        LGT RAIN  69  66  90 SW6       29.99F
CARO           CLOUDY    68  67  95 CALM      29.99F
DETROIT CITY   CLOUDY    73  64  73 S3        30.02F
DETROIT        CLOUDY    73  68  84 SE6       30.02F
FLINT          CLOUDY    72  63  73 S3        30.00F
GROSSE ILE     CLOUDY    74  69  82 S6        30.01S
HILLSDALE      CLOUDY    68  63  83 SE5       30.02F
HOWELL         CLOUDY    71  63  74 S5        30.01F

CITY           SKY/WX    TMP DP  RH WIND       PRES   REMARKS
JACKSON        PTCLDY    73  62  68 S6        30.02F
LAMBERTVILLE   PTCLDY    69  64  86 SW3       30.01F
LANSING        CLOUDY    73  62  68 S7        30.00F
LAPEER         MOCLDY    71  66  85 CALM      30.00F
MASON          CLOUDY    69  64  84 S3        30.01F
MONROE         CLOUDY    73  68  83 SE3       30.00F
MT. CLEMENS    CLOUDY    72  64  76 S3        30.00F
PONTIAC        CLOUDY    73  64  73 S6        30.00F
PORT HOPE        N/A     69  66  90 VRB3      29.97F
PORT HURON     CLOUDY    72  64  78 CALM      30.01F
TRI CITIES     CLOUDY    72  69  90 SW5       29.98F
MIDLAND        LGT RAIN  70  69  95 S3        29.97S
TROY           CLOUDY    75  63  64 S3        30.04S
SAGINAW HB     LGT RAIN  70  66  88 S9        29.97F
$$
MIZ043>046-050>051-056>058-064>065-071>073-077>080-270500-
SOUTHWEST LOWER MICHIGAN

CITY           SKY/WX    TMP DP  RH WIND       PRES   REMARKS
BATTLE CREEK   CLOUDY    73  65  75 S6        30.02R
BENTON HARBOR  CLOUDY    74  67  78 SE3       29.99S
BIG RAPIDS     CLOUDY    69  67  92 SW3       29.99S
COLDWATER      MOCLDY    70  67  90 SE5       30.01F
FREMONT        DRIZZLE   68  68 100 SE3       29.98F
HOLLAND        PTCLDY    73  66  78 S5        29.99S
GRAND RAPIDS   MOCLDY    73  66  78 S6        29.99S
IONIA          FAIR      72  64  76 S3        29.99S
KALAMAZOO      CLOUDY    74  64  71 S5        30.01R
LUDINGTON      CLOUDY    69  68  99 CALM      29.96F FOG
MARSHALL       CLOUDY    72  67  83 SE5       30.00F
MOUNT PLEASANT CLOUDY    71  67  87 SW3       29.98S
MUSKEGON       PTCLDY    71  69  93 SE6       29.97F
SOUTH HAVEN    CLOUDY    75  69  80 S3        29.99S
$$
MIZ016>042-270500-
NORTHERN LOWER MICHIGAN

CITY           SKY/WX    TMP DP  RH WIND       PRES   REMARKS
ALPENA         PTCLDY    69  69 100 SW5       29.96F
BEAVER ISLAND  FOG       65  65  99 W3        29.97R VSB 1
BELLAIRE       CLOUDY    69  66  90 CALM      29.96F
CADILLAC       MOCLDY    70  67  89 SW7       30.00S
CHARLEVOIX     LGT RAIN  68  68 100 W5        29.99F
FRANKFORT      CLOUDY    70  69  99 CALM      29.97F
GAYLORD        MOCLDY    68  65  90 SW8       29.98F
GRAYLING       CLOUDY    67  65  94 CALM      30.00S
HARBOR SPRINGS CLOUDY    67  65  94 W3        29.96S FOG
HOUGHTON LAKE  CLOUDY    70  68  93 W6        30.00S
MANISTEE       PTCLDY    67  67 100 CALM      29.97S
OSCODA         CLOUDY    69  67  95 CALM      29.97S
PELLSTON       MOCLDY    67  66  97 N3        29.97R
ROGERS CITY    CLOUDY    67  66  96 CALM      29.97S
TRAVERSE CITY  MOCLDY    71  67  87 SW5       29.95S
$$
MIZ007>008-015-270500-
EASTERN UPPER MICHIGAN

CITY           SKY/WX    TMP DP  RH WIND       PRES   REMARKS
KINROSS        FOG       63  63 100 CALM      29.96S VSB 1/4
MACKINAC ISLAN MOCLDY    66  66 100 NW5       29.96S FOG
NEWBERRY       PTCLDY    58  57  97 CALM      29.96R FOG
S. S. MARIE    CLEAR     61  55  81 CALM      29.95S
MUNISING         N/A     60  59  96 S7        29.96R
$$
MIZ004>006-011>014-085-270500-
CENTRAL UPPER MICHIGAN

CITY           SKY/WX    TMP DP  RH WIND       PRES   REMARKS
MANISTIQUE     CLEAR     56  53  89 CALM      29.96S
ESCANABA       CLEAR     61  61 100 W3        29.97R
MENOMINEE      MOCLDY    71  68  90 N7        29.97S
SAWYER-GWINN   CLEAR     63  57  82 CALM      29.99S
$$
MIZ001>003-009>011-084-270500-
WESTERN UPPER MICHIGAN

CITY           SKY/WX    TMP DP  RH WIND       PRES   REMARKS
IRON MOUNTAIN  CLEAR     59  53  80 CALM      29.99R
HOUGHTON       CLEAR     64  56  75 NW9       29.97R
COPPER HARBOR    N/A     66  55  67 W3        29.95R
IRONWOOD       PTCLDY    60  59  96 CALM      30.02R
$$

ABBREVIATIONS USED IN REMARKS
   TC - TEMPERATURE IN CELSIUS
  WCI - WIND CHILL INDEX
   HX - HEAT INDEX
  VSB - VISIBILITY





USA.gov is the U.S. government's official web portal to all federal, state and local government web resources and services.